�������l�o���
Date,Time,MP-1(��Sv/h),MP-2(��Sv/h),MP-3(��Sv/h),MP-4(��Sv/h),MP-5(��Sv/h),MP-6(��Sv/h),MP-7(��Sv/h),MP-8(��Sv/h),����,����(m/s),���J
2021/10/23,00:00,0.568,0.844,0.539,1.034,0.727,0.352,0.610,0.573,�k��,6.7,��
2021/10/23,00:10,0.567,0.844,0.540,1.037,0.729,0.350,0.608,0.573,�k��,6.8,��
2021/10/23,00:20,0.566,0.845,0.541,1.034,0.729,0.351,0.610,0.574,�k��,6.2,��
2021/10/23,00:30,0.567,0.844,0.541,1.037,0.728,0.350,0.608,0.571,�k��,6.3,��
2021/10/23,00:40,0.567,0.844,0.540,1.037,0.730,0.353,0.609,0.574,�k��,5.6,��
2021/10/23,00:50,0.568,0.844,0.541,1.037,0.729,0.351,0.609,0.573,�k��,5.7,��
2021/10/23,01:00,0.567,0.843,0.542,1.036,0.729,0.351,0.609,0.572,�k��,7.7,��
2021/10/23,01:10,0.567,0.843,0.542,1.039,0.730,0.353,0.609,0.574,�k��,6.4,��
2021/10/23,01:20,0.567,0.844,0.542,1.036,0.731,0.350,0.610,0.573,�k��,7.9,��
2021/10/23,01:30,0.568,0.843,0.542,1.036,0.728,0.350,0.608,0.573,�k��,6.9,��
2021/10/23,01:40,0.568,0.845,0.542,1.036,0.730,0.352,0.608,0.573,�k��,6.8,��
2021/10/23,01:50,0.566,0.844,0.541,1.035,0.730,0.351,0.609,0.573,�k��,6.6,��
2021/10/23,02:00,0.569,0.844,0.540,1.036,0.731,0.351,0.612,0.575,�k��,6.4,��
2021/10/23,02:10,0.567,0.843,0.541,1.037,0.730,0.351,0.610,0.574,�k��,5.9,��
2021/10/23,02:20,0.566,0.844,0.542,1.038,0.730,0.351,0.611,0.574,�k��,6.1,��
2021/10/23,02:30,0.568,0.845,0.542,1.038,0.729,0.351,0.610,0.573,�k��,6.9,��
2021/10/23,02:40,0.567,0.845,0.541,1.037,0.730,0.352,0.609,0.574,�k��,6.3,��
2021/10/23,02:50,0.569,0.846,0.542,1.039,0.729,0.350,0.611,0.571,�k��,6.9,��
2021/10/23,03:00,0.567,0.842,0.541,1.037,0.728,0.351,0.610,0.574,�k��,6.1,��
2021/10/23,03:10,0.566,0.845,0.541,1.038,0.729,0.352,0.611,0.572,�k��,6.4,��
2021/10/23,03:20,0.568,0.846,0.542,1.036,0.729,0.351,0.610,0.574,�k��,5.4,��
2021/10/23,03:30,0.567,0.846,0.541,1.036,0.730,0.352,0.610,0.573,�k��,5.0,��
2021/10/23,03:40,0.568,0.843,0.541,1.037,0.732,0.352,0.612,0.574,�k��,5.1,��
2021/10/23,03:50,0.568,0.842,0.541,1.038,0.731,0.352,0.610,0.574,�k��,6.4,��
2021/10/23,04:00,0.568,0.845,0.540,1.038,0.730,0.352,0.611,0.574,�k�k��,7.1,��
2021/10/23,04:10,0.568,0.846,0.541,1.039,0.729,0.351,0.610,0.574,�k��,6.7,��
2021/10/23,04:20,0.569,0.846,0.542,1.038,0.729,0.352,0.610,0.575,�k��,5.0,��
2021/10/23,04:30,0.566,0.846,0.543,1.036,0.730,0.352,0.609,0.572,�k��,5.0,��
2021/10/23,04:40,0.567,0.844,0.544,1.037,0.730,0.352,0.612,0.573,�k��,4.8,��
2021/10/23,04:50,0.566,0.846,0.542,1.036,0.731,0.352,0.610,0.573,�k��,5.7,��
2021/10/23,05:00,0.567,0.846,0.541,1.037,0.729,0.351,0.611,0.575,�k��,5.0,��
2021/10/23,05:10,0.567,0.847,0.541,1.039,0.731,0.351,0.611,0.575,�k��,3.5,��
2021/10/23,05:20,0.567,0.845,0.542,1.040,0.730,0.352,0.610,0.573,���k��,4.9,��
2021/10/23,05:30,0.568,0.847,0.542,1.037,0.731,0.352,0.609,0.576,�k��,6.3,��
2021/10/23,05:40,0.568,0.846,0.541,1.039,0.731,0.352,0.610,0.574,�k��,6.6,��
2021/10/23,05:50,0.567,0.843,0.542,1.039,0.729,0.353,0.613,0.575,�k�k��,6.2,��
2021/10/23,06:00,0.567,0.845,0.542,1.038,0.730,0.353,0.610,0.574,�k�k��,4.8,��
2021/10/23,06:10,0.567,0.845,0.543,1.038,0.731,0.350,0.610,0.575,�k�k��,4.8,��
2021/10/23,06:20,0.569,0.846,0.543,1.039,0.732,0.352,0.611,0.574,�k�k��,3.7,��
2021/10/23,06:30,0.568,0.843,0.542,1.038,0.730,0.352,0.610,0.574,���k��,3.5,��
2021/10/23,06:40,0.569,0.846,0.542,1.040,0.732,0.352,0.612,0.576,���k��,5.3,��
2021/10/23,06:50,0.568,0.848,0.543,1.036,0.731,0.350,0.610,0.573,�k��,6.4,��
2021/10/23,07:00,0.568,0.845,0.543,1.038,0.730,0.352,0.610,0.574,�k��,9.5,��
2021/10/23,07:10,0.568,0.848,0.542,1.041,0.732,0.352,0.611,0.574,�k��,9.4,��
2021/10/23,07:20,0.568,0.847,0.544,1.039,0.732,0.352,0.611,0.576,�k��,7.9,��
2021/10/23,07:30,0.569,0.847,0.543,1.038,0.730,0.350,0.613,0.575,���k��,7.8,��
2021/10/23,07:40,0.567,0.849,0.542,1.039,0.732,0.351,0.611,0.575,���k��,7.3,��
2021/10/23,07:50,0.570,0.848,0.544,1.040,0.731,0.351,0.610,0.575,�k��,6.9,��
2021/10/23,08:00,0.569,0.848,0.544,1.041,0.732,0.353,0.610,0.574,���k��,6.5,��
2021/10/23,08:10,0.570,0.849,0.543,1.039,0.731,0.352,0.611,0.575,�k��,5.9,��
2021/10/23,08:20,0.569,0.847,0.542,1.041,0.732,0.351,0.611,0.575,�k��,6.0,��
2021/10/23,08:30,0.570,0.848,0.542,1.043,0.733,0.353,0.610,0.574,�k��,8.4,�L
2021/10/23,08:40,0.570,0.843,0.543,1.041,0.732,0.351,0.610,0.574,�k��,10.6,��
2021/10/23,08:50,0.571,0.847,0.544,1.042,0.731,0.351,0.608,0.576,�k��,9.3,��
2021/10/23,09:00,0.571,0.851,0.544,1.040,0.733,0.353,0.609,0.576,�k��,8.8,��
2021/10/23,09:10,0.571,0.849,0.543,1.045,0.735,0.352,0.611,0.575,�k��,9.3,��
2021/10/23,09:20,0.569,0.848,0.544,1.043,0.735,0.352,0.610,0.575,�k��,9.7,��
2021/10/23,09:30,0.572,0.848,0.544,1.043,0.734,0.353,0.611,0.575,�k��,8.0,��
2021/10/23,09:40,0.568,0.850,0.546,1.043,0.736,0.354,0.611,0.577,�k��,8.2,��
2021/10/23,09:50,0.571,0.851,0.544,1.044,0.736,0.353,0.609,0.574,���k��,8.4,��
2021/10/23,10:00,0.570,0.850,0.547,1.042,0.734,0.352,0.612,0.575,�k��,9.3,��
2021/10/23,10:10,0.569,0.852,0.546,1.044,0.735,0.353,0.609,0.572,�k��,10.0,��
2021/10/23,10:20,0.571,0.851,0.545,1.044,0.734,0.352,0.611,0.574,�k��,9.6,��
2021/10/23,10:30,0.571,0.852,0.548,1.043,0.734,0.352,0.610,0.574,�k��,7.1,��
2021/10/23,10:40,0.571,0.852,0.547,1.044,0.736,0.352,0.610,0.574,�k��,5.9,��
2021/10/23,10:50,0.569,0.851,0.547,1.045,0.734,0.353,0.611,0.571,�k,6.9,��
2021/10/23,11:00,0.569,0.851,0.547,1.042,0.735,0.351,0.608,0.575,�k�k��,6.5,�L
2021/10/23,11:10,0.571,0.851,0.545,1.043,0.737,0.351,0.609,0.573,�k�k��,5.7,��
2021/10/23,11:20,0.572,0.852,0.547,1.046,0.736,0.352,0.610,0.574,�k�k��,4.4,��
2021/10/23,11:30,0.573,0.852,0.548,1.046,0.739,0.353,0.607,0.575,�k��,9.1,��
2021/10/23,11:40,0.574,0.852,0.547,1.048,0.740,0.353,0.609,0.575,���k��,10.2,��
2021/10/23,11:50,0.574,0.855,0.548,1.044,0.740,0.354,0.610,0.576,���k��,11.3,��
2021/10/23,12:00,0.576,0.854,0.547,1.046,0.740,0.353,0.611,0.578,���k��,11.0,��
2021/10/23,12:10,0.574,0.855,0.551,1.047,0.738,0.354,0.612,0.577,�k��,13.5,��
2021/10/23,12:20,0.574,0.855,0.548,1.049,0.738,0.353,0.611,0.575,�k��,9.9,��
2021/10/23,12:30,0.573,0.854,0.549,1.048,0.739,0.354,0.612,0.576,�k��,9.0,��
2021/10/23,12:40,0.574,0.854,0.546,1.047,0.738,0.355,0.612,0.575,�k�k��,8.6,�L
2021/10/23,12:50,0.575,0.856,0.545,1.049,0.738,0.355,0.612,0.574,�k�k��,10.0,�L
2021/10/23,13:00,0.574,0.857,0.548,1.047,0.738,0.355,0.611,0.573,�k��,9.3,��
2021/10/23,13:10,0.574,0.855,0.549,1.050,0.739,0.354,0.611,0.573,�k��,8.4,��
2021/10/23,13:20,0.576,0.855,0.546,1.047,0.738,0.354,0.612,0.574,�k��,6.4,��
2021/10/23,13:30,0.575,0.856,0.548,1.050,0.737,0.355,0.612,0.575,�k��,12.1,��
2021/10/23,13:40,0.575,0.858,0.549,1.047,0.738,0.353,0.611,0.577,�k��,11.9,��
2021/10/23,13:50,0.574,0.856,0.550,1.051,0.740,0.354,0.610,0.577,�k��,10.2,��
2021/10/23,14:00,0.576,0.855,0.551,1.045,0.739,0.353,0.611,0.574,�k��,8.7,�L
2021/10/23,14:10,0.575,0.855,0.551,1.050,0.740,0.355,0.610,0.574,�k��,11.9,�L
2021/10/23,14:20,0.575,0.856,0.551,1.053,0.742,0.355,0.612,0.575,�k��,9.4,��
2021/10/23,14:30,0.575,0.856,0.552,1.054,0.741,0.355,0.611,0.575,�k�k��,9.6,��
2021/10/23,14:40,0.572,0.855,0.552,1.051,0.740,0.355,0.611,0.573,�k�k��,9.6,��
2021/10/23,14:50,0.575,0.858,0.552,1.054,0.739,0.357,0.611,0.576,�k��,11.6,��
2021/10/23,15:00,0.574,0.859,0.552,1.051,0.742,0.356,0.611,0.575,�k��,11.8,��
2021/10/23,15:10,0.574,0.858,0.550,1.050,0.741,0.354,0.611,0.575,�k��,9.7,��
2021/10/23,15:20,0.574,0.857,0.550,1.050,0.739,0.355,0.611,0.575,�k��,6.7,��
2021/10/23,15:30,0.572,0.858,0.552,1.051,0.740,0.355,0.612,0.575,�k��,5.3,��
2021/10/23,15:40,0.575,0.859,0.551,1.052,0.739,0.354,0.610,0.576,�k�k��,6.0,��
2021/10/23,15:50,0.576,0.859,0.550,1.051,0.740,0.355,0.611,0.577,�k��,4.6,��
2021/10/23,16:00,0.575,0.858,0.551,1.052,0.740,0.355,0.611,0.577,�k��,4.9,��
2021/10/23,16:10,0.574,0.856,0.549,1.051,0.742,0.354,0.612,0.578,�k��,5.5,��
2021/10/23,16:20,0.573,0.858,0.549,1.052,0.738,0.354,0.610,0.577,�k�k��,5.4,��
2021/10/23,16:30,0.573,0.858,0.550,1.051,0.741,0.353,0.610,0.578,�k��,4.0,��
2021/10/23,16:40,0.573,0.860,0.548,1.050,0.743,0.353,0.612,0.578,�k��,3.2,��
2021/10/23,16:50,0.575,0.859,0.550,1.052,0.743,0.353,0.611,0.578,�k��,3.2,��
2021/10/23,17:00,0.576,0.859,0.550,1.052,0.743,0.352,0.610,0.576,�k��,2.8,��
2021/10/23,17:10,0.575,0.859,0.549,1.051,0.742,0.353,0.611,0.577,���k��,3.5,��
2021/10/23,17:20,0.575,0.860,0.551,1.051,0.742,0.354,0.611,0.577,�k��,3.5,��
2021/10/23,17:30,0.574,0.858,0.549,1.051,0.742,0.355,0.612,0.577,�k��,4.0,��
2021/10/23,17:40,0.575,0.859,0.548,1.050,0.741,0.355,0.614,0.578,�k��,5.2,��
2021/10/23,17:50,0.575,0.858,0.549,1.050,0.741,0.354,0.612,0.575,�k��,5.2,��
2021/10/23,18:00,0.574,0.859,0.550,1.052,0.741,0.352,0.614,0.577,�k��,4.9,��
2021/10/23,18:10,0.575,0.860,0.549,1.049,0.741,0.354,0.613,0.576,�k��,6.5,��
2021/10/23,18:20,0.575,0.861,0.549,1.049,0.742,0.352,0.616,0.577,�k��,7.2,��
2021/10/23,18:30,0.573,0.858,0.548,1.052,0.742,0.353,0.613,0.577,�k��,7.8,��
2021/10/23,18:40,0.574,0.857,0.548,1.051,0.742,0.352,0.612,0.577,�k��,7.4,��
2021/10/23,18:50,0.574,0.859,0.548,1.053,0.743,0.354,0.614,0.578,�k��,6.6,��
2021/10/23,19:00,0.576,0.858,0.548,1.050,0.743,0.353,0.613,0.576,�k��,5.9,��
2021/10/23,19:10,0.573,0.857,0.550,1.051,0.742,0.353,0.613,0.575,�k��,5.7,��
2021/10/23,19:20,0.574,0.860,0.549,1.050,0.742,0.353,0.613,0.576,�k��,6.5,��
2021/10/23,19:30,0.574,0.859,0.549,1.051,0.741,0.353,0.614,0.578,�k��,5.5,��
2021/10/23,19:40,0.574,0.859,0.549,1.052,0.743,0.353,0.614,0.576,�k��,5.9,��
2021/10/23,19:50,0.576,0.858,0.550,1.051,0.743,0.352,0.615,0.578,�k��,6.3,��
2021/10/23,20:00,0.572,0.859,0.550,1.054,0.743,0.353,0.611,0.577,�k��,5.6,��
2021/10/23,20:10,0.573,0.857,0.551,1.051,0.743,0.353,0.613,0.578,�k��,5.9,��
2021/10/23,20:20,0.574,0.858,0.549,1.052,0.742,0.352,0.614,0.576,�k��,6.3,��
2021/10/23,20:30,0.574,0.857,0.548,1.051,0.741,0.353,0.613,0.576,�k��,5.7,��
2021/10/23,20:40,0.574,0.859,0.548,1.053,0.741,0.352,0.615,0.577,�k��,6.0,��
2021/10/23,20:50,0.574,0.859,0.549,1.051,0.742,0.352,0.613,0.579,�k��,5.6,��
2021/10/23,21:00,0.575,0.858,0.550,1.053,0.742,0.353,0.614,0.578,�k��,5.2,��
2021/10/23,21:10,0.574,0.859,0.550,1.051,0.743,0.353,0.613,0.576,�k��,5.3,��
2021/10/23,21:20,0.575,0.860,0.548,1.052,0.741,0.353,0.614,0.577,�k��,6.1,��
2021/10/23,21:30,0.574,0.861,0.548,1.052,0.742,0.352,0.613,0.578,�k��,5.9,��
2021/10/23,21:40,0.574,0.858,0.548,1.051,0.741,0.352,0.613,0.578,�k��,5.4,��
2021/10/23,21:50,0.574,0.859,0.548,1.049,0.742,0.352,0.612,0.576,�k��,5.5,��
2021/10/23,22:00,0.575,0.859,0.549,1.051,0.744,0.353,0.614,0.577,�k��,4.3,��
2021/10/23,22:10,0.574,0.860,0.549,1.052,0.742,0.354,0.613,0.576,�k��,4.1,��
2021/10/23,22:20,0.575,0.859,0.548,1.051,0.743,0.354,0.614,0.575,���k��,4.3,��
2021/10/23,22:30,0.576,0.861,0.549,1.052,0.743,0.354,0.613,0.578,�k��,5.1,��
2021/10/23,22:40,0.574,0.858,0.547,1.053,0.744,0.353,0.612,0.577,���k��,6.1,��
2021/10/23,22:50,0.575,0.859,0.548,1.052,0.743,0.352,0.613,0.577,���k��,5.1,��
2021/10/23,23:00,0.575,0.859,0.549,1.051,0.744,0.353,0.612,0.578,���k��,6.5,��
2021/10/23,23:10,0.575,0.856,0.548,1.050,0.742,0.353,0.612,0.577,���k��,6.7,��
2021/10/23,23:20,0.574,0.859,0.549,1.052,0.744,0.352,0.614,0.576,���k��,6.5,��
2021/10/23,23:30,0.574,0.858,0.548,1.051,0.741,0.353,0.613,0.575,���k��,5.5,��
2021/10/23,23:40,0.574,0.860,0.549,1.052,0.742,0.353,0.614,0.577,��,4.0,��
2021/10/23,23:50,0.575,0.859,0.548,1.051,0.743,0.353,0.613,0.577,���k��,4.9,��
